Fort Myers, FL

8:39 PM EDT on April 24, 2018 (GMT -0400)
Page

Weather History for KFMY - December, 2014

Change the Weather History Date:

Monday, December 15, 2014

  Actual Average Record
Temperature  
Mean Temperature 60 °F 67 °F  
Max Temperature 74 °F 77 °F 87 °F (1940)
Min Temperature 46 °F 57 °F 33 °F (1944)
Degree Days  
Heating Degree Days 5 2  
Month to date heating degree days 41 25  
Since 1 July heating degree days 82 43  
Cooling Degree Days 0 4  
Month to date cooling degree days 57 67  
Year to date cooling degree days 3984 3930  
Growing Degree Days 10 (Base 50)    
Moisture  
Dew Point 45 °F    
Average Humidity 63    
Maximum Humidity 86    
Minimum Humidity 33    
Precipitation  
Precipitation 0.00 in 0.05 in 0.69 in (1947)
Month to date precipitation 0.01 0.73  
Year to date precipitation 42.28 54.95  
Sea Level Pressure  
Sea Level Pressure 30.11 in    
Wind  
Wind Speed 2 mph (WNW)    
Max Wind Speed 10 mph    
Max Gust Speed 12 mph    
Visibility 10 miles    
Events      
T = Trace of Precipitation, MM = Missing Value Source: NWS Daily Summary

Daily Weather History Graph

Daily Weather History Graph

Search for Another Location

Airport or City:

Astronomy

Dec. 15, 2014 Rise Set
Actual Time 7:08 AM EST 5:37 PM EST
Civil Twilight 6:42 AM EST 6:02 PM EST
Nautical Twilight 6:13 AM EST 6:31 PM EST
Astronomical Twilight 5:45 AM EST 6:59 PM EST
Moon 12:57 AM EST (12/15) 1:07 PM EST (12/15)
Length of Visible Light 11h 19m
Length of Day
10h 29m
Last Quarter, 39% of the Moon is Illuminated
Dec 15
Last Quarter
Dec 21
New
Dec 28
First Quarter
Jan 4
Full
Jan 13
Last Quarter

Hourly Weather History & Observations

Time (EST) Temp. Dew Point Humidity Pressure Visibility Wind Dir Wind Speed Gust Speed Precip Events Conditions
12:53 AM 51.1 °F 44.1 °F 77% 30.07 in 10.0 mi NE 3.5 mph - N/A   Clear
1:53 AM 51.1 °F 43.0 °F 74% 30.07 in 10.0 mi Calm Calm - N/A   Clear
2:53 AM 50.0 °F 43.0 °F 77% 30.07 in 10.0 mi Calm Calm - N/A   Clear
3:53 AM 48.0 °F 43.0 °F 83% 30.07 in 10.0 mi Calm Calm - N/A   Clear
4:53 AM 46.9 °F 43.0 °F 86% 30.08 in 10.0 mi Calm Calm - N/A   Clear
5:53 AM 46.0 °F 43.0 °F 89% 30.08 in 10.0 mi Calm Calm - N/A   Clear
6:53 AM 46.9 °F 42.1 °F 83% 30.10 in 10.0 mi Calm Calm - N/A   Clear
7:53 AM 48.9 °F 45.0 °F 86% 30.11 in 10.0 mi Calm Calm - N/A   Clear
8:53 AM 55.9 °F 44.1 °F 64% 30.13 in 10.0 mi NE 3.5 mph - N/A   Clear
9:53 AM 62.1 °F 44.1 °F 52% 30.15 in 10.0 mi Calm Calm - N/A   Clear
10:53 AM 68.0 °F 42.1 °F 39% 30.15 in 10.0 mi North 4.6 mph - N/A   Clear
11:53 AM 71.1 °F 42.1 °F 35% 30.13 in 10.0 mi Calm Calm - N/A   Clear
12:53 PM 72.0 °F 42.1 °F 34% 30.10 in 10.0 mi WNW 5.8 mph - N/A   Clear
1:53 PM 73.0 °F 43.0 °F 34% 30.07 in 10.0 mi WNW 4.6 mph - N/A   Clear
2:53 PM 73.0 °F 45.0 °F 37% 30.06 in 10.0 mi West 5.8 mph - N/A   Clear
3:53 PM 72.0 °F 46.0 °F 40% 30.07 in 10.0 mi West 9.2 mph - N/A   Clear
4:53 PM 70.0 °F 43.0 °F 38% 30.09 in 10.0 mi WSW 6.9 mph - N/A   Clear
5:53 PM 64.9 °F 45.0 °F 48% 30.10 in 10.0 mi West 4.6 mph - N/A   Clear
6:53 PM 62.1 °F 46.0 °F 56% 30.12 in 10.0 mi Calm Calm - N/A   Clear
7:53 PM 59.0 °F 48.0 °F 67% 30.13 in 10.0 mi Calm Calm - N/A   Clear
8:53 PM 59.0 °F 48.0 °F 67% 30.14 in 10.0 mi Calm Calm - N/A   Clear
9:53 PM 57.0 °F 51.1 °F 81% 30.15 in 10.0 mi Calm Calm - N/A   Clear
10:53 PM 55.0 °F 50.0 °F 83% 30.16 in 10.0 mi Calm Calm - N/A   Clear
11:53 PM 53.1 °F 48.9 °F 86% 30.15 in 10.0 mi SE 3.5 mph - N/A   Clear